Precipitable_Water
0.07 0.08 0.10 0.10 0.10 0.10 0.10 0.09 0.10 0.10 0.10 0.10 0.10 0.09 0.09 0.09 0.09 0.09 0.10 0.10 0.11 0.11 0.11 0.11 0.13 0.14 0.14 0.15 0.15 0.15 0.14 0.14 0.14 0.14 0.15 0.16 0.16 0.17 0.19 0.22 0.25 0.26
0.12 0.13 0.12 0.12 0.11 0.11 0.11 0.11 0.11 0.11 0.10 0.10 0.10 0.10 0.10 0.09 0.10 0.10 0.10 0.11 0.11 0.11 0.13 0.13 0.13 0.13 0.14 0.14 0.14 0.14 0.14 0.15 0.15 0.16 0.17 0.18 0.18 0.19 0.19 0.20 0.22 0.24
0.14 0.13 0.13 0.12 0.12 0.13 0.13 0.13 0.12 0.12 0.11 0.10 0.10 0.10 0.10 0.11 0.11 0.11 0.11 0.11 0.11 0.11 0.12 0.13 0.14 0.14 0.14 0.14 0.15 0.15 0.16 0.17 0.17 0.18 0.19 0.19 0.20 0.20 0.20 0.20 0.21 0.22
0.13 0.13 0.13 0.13 0.13 0.13 0.13 0.13 0.12 0.11 0.11 0.10 0.10 0.11 0.11 0.11 0.11 0.10 0.10 0.10 0.10 0.11 0.11 0.12 0.12 0.14 0.16 0.16 0.17 0.17 0.17 0.18 0.19 0.21 0.21 0.21 0.21 0.21 0.21 0.21 0.21 0.22
0.13 0.13 0.13 0.13 0.12 0.12 0.12 0.12 0.12 0.12 0.11 0.11 0.11 0.11 0.11 0.10 0.10 0.10 0.10 0.10 0.10 0.10 0.11 0.11 0.12 0.13 0.13 0.14 0.15 0.15 0.15 0.16 0.18 0.20 0.21 0.21 0.22 0.22 0.22 0.23 0.22 0.22
0.13 0.13 0.12 0.12 0.12 0.12 0.12 0.12 0.12 0.11 0.11 0.11 0.11 0.11 0.11 0.11 0.10 0.10 0.10 0.10 0.10 0.10 0.11 0.11 0.12 0.12 0.13 0.13 0.13 0.13 0.14 0.15 0.17 0.20 0.21 0.22 0.23 0.24 0.24 0.24 0.23 0.23
0.13 0.12 0.12 0.12 0.12 0.12 0.12 0.12 0.12 0.12 0.12 0.12 0.12 0.12 0.11 0.11 0.11 0.11 0.10 0.10 0.10 0.11 0.11 0.11 0.12 0.12 0.13 0.13 0.13 0.13 0.14 0.16 0.19 0.22 0.23 0.24 0.24 0.25 0.25 0.24 0.25 0.25
0.12 0.12 0.12 0.12 0.12 0.12 0.12 0.12 0.12 0.12 0.12 0.12 0.12 0.12 0.12 0.12 0.12 0.12 0.11 0.11 0.12 0.12 0.12 0.12 0.12 0.12 0.13 0.13 0.14 0.15 0.16 0.20 0.21 0.21 0.22 0.22 0.24 0.25 0.25 0.25 0.25 0.25
0.13 0.13 0.12 0.12 0.12 0.12 0.12 0.12 0.12 0.12 0.13 0.12 0.12 0.12 0.13 0.13 0.12 0.12 0.12 0.13 0.13 0.13 0.13 0.13 0.14 0.14 0.15 0.16 0.16 0.17 0.18 0.19 0.20 0.21 0.22 0.22 0.23 0.25 0.25 0.25 0.26 0.26
0.13 0.13 0.12 0.12 0.12 0.12 0.12 0.13 0.13 0.13 0.13 0.13 0.13 0.13 0.13 0.13 0.13 0.13 0.13 0.13 0.12 0.12 0.12 0.12 0.13 0.14 0.15 0.16 0.16 0.17 0.18 0.19 0.20 0.21 0.21 0.22 0.23 0.24 0.26 0.26 0.25 0.25
0.13 0.13 0.13 0.13 0.13 0.13 0.13 0.14 0.14 0.13 0.13 0.13 0.13 0.13 0.14 0.14 0.14 0.14 0.13 0.13 0.13 0.12 0.12 0.12 0.13 0.13 0.14 0.15 0.16 0.17 0.17 0.18 0.19 0.20 0.21 0.22 0.23 0.24 0.26 0.27 0.26 0.25
0.13 0.13 0.13 0.13 0.13 0.13 0.14 0.14 0.14 0.14 0.14 0.14 0.14 0.14 0.14 0.14 0.14 0.14 0.14 0.14 0.13 0.13 0.13 0.13 0.13 0.13 0.14 0.14 0.15 0.16 0.17 0.18 0.19 0.20 0.22 0.23 0.24 0.25 0.26 0.27 0.27 0.28
0.13 0.13 0.13 0.13 0.14 0.14 0.14 0.14 0.15 0.15 0.15 0.15 0.15 0.15 0.15 0.15 0.15 0.15 0.15 0.14 0.14 0.14 0.13 0.13 0.13 0.14 0.14 0.14 0.15 0.16 0.16 0.17 0.18 0.20 0.21 0.23 0.24 0.24 0.25 0.26 0.28 0.29
0.13 0.14 0.14 0.14 0.14 0.15 0.15 0.15 0.15 0.15 0.15 0.16 0.16 0.16 0.16 0.16 0.16 0.16 0.16 0.16 0.16 0.15 0.15 0.15 0.15 0.14 0.14 0.15 0.15 0.15 0.16 0.17 0.18 0.20 0.21 0.22 0.23 0.24 0.25 0.26 0.27 0.28
0.14 0.14 0.14 0.15 0.15 0.15 0.15 0.15 0.15 0.16 0.16 0.16 0.16 0.17 0.17 0.17 0.17 0.17 0.17 0.17 0.17 0.17 0.17 0.17 0.16 0.16 0.15 0.15 0.15 0.16 0.17 0.18 0.19 0.19 0.20 0.21 0.22 0.23 0.24 0.26 0.27 0.28
0.14 0.15 0.15 0.15 0.15 0.15 0.16 0.16 0.16 0.16 0.16 0.17 0.17 0.18 0.18 0.18 0.18 0.19 0.18 0.18 0.18 0.18 0.18 0.18 0.18 0.18 0.18 0.18 0.17 0.17 0.18 0.18 0.19 0.20 0.20 0.21 0.22 0.23 0.24 0.24 0.26 0.27
0.15 0.15 0.15 0.15 0.15 0.16 0.16 0.16 0.16 0.17 0.17 0.17 0.18 0.18 0.19 0.19 0.19 0.19 0.19 0.19 0.19 0.19 0.19 0.19 0.20 0.20 0.21 0.21 0.21 0.21 0.20 0.20 0.21 0.21 0.21 0.21 0.22 0.22 0.23 0.24 0.26 0.27
0.15 0.15 0.15 0.16 0.16 0.16 0.16 0.17 0.17 0.17 0.17 0.18 0.18 0.18 0.19 0.19 0.19 0.20 0.20 0.20 0.20 0.20 0.20 0.21 0.21 0.22 0.22 0.23 0.23 0.23 0.23 0.23 0.22 0.22 0.22 0.22 0.22 0.22 0.23 0.24 0.25 0.26
0.14 0.15 0.15 0.16 0.16 0.16 0.17 0.17 0.17 0.17 0.18 0.18 0.18 0.19 0.20 0.20 0.20 0.20 0.20 0.21 0.21 0.21 0.21 0.22 0.22 0.23 0.23 0.24 0.24 0.24 0.25 0.25 0.24 0.24 0.23 0.23 0.23 0.23 0.23 0.24 0.25 0.25
0.15 0.15 0.15 0.15 0.16 0.16 0.17 0.17 0.17 0.17 0.18 0.19 0.19 0.20 0.20 0.20 0.20 0.21 0.21 0.21 0.22 0.22 0.22 0.23 0.23 0.24 0.24 0.25 0.25 0.26 0.26 0.25 0.25 0.24 0.24 0.23 0.23 0.23 0.23 0.23 0.24 0.25
0.15 0.15 0.15 0.16 0.16 0.16 0.17 0.17 0.17 0.18 0.18 0.19 0.19 0.19 0.20 0.20 0.20 0.21 0.21 0.22 0.22 0.23 0.23 0.23 0.24 0.25 0.25 0.26 0.26 0.27 0.27 0.27 0.26 0.26 0.25 0.24 0.24 0.24 0.24 0.23 0.24 0.24
0.15 0.15 0.16 0.16 0.16 0.17 0.17 0.17 0.18 0.18 0.18 0.19 0.19 0.20 0.20 0.21 0.21 0.21 0.21 0.22 0.22 0.22 0.23 0.23 0.24 0.25 0.26 0.27 0.27 0.28 0.28 0.28 0.27 0.27 0.26 0.25 0.24 0.24 0.24 0.24 0.24 0.24
0.15 0.15 0.16 0.16 0.16 0.17 0.17 0.17 0.18 0.18 0.19 0.19 0.20 0.20 0.20 0.20 0.21 0.21 0.22 0.22 0.22 0.23 0.23 0.23 0.23 0.24 0.25 0.26 0.27 0.28 0.29 0.29 0.29 0.28 0.27 0.26 0.25 0.24 0.24 0.24 0.24 0.24
0.15 0.15 0.15 0.16 0.16 0.16 0.17 0.18 0.18 0.19 0.19 0.20 0.19 0.20 0.20 0.20 0.21 0.21 0.22 0.22 0.22 0.22 0.22 0.22 0.23 0.24 0.25 0.25 0.26 0.27 0.28 0.28 0.29 0.28 0.27 0.27 0.27 0.27 0.25 0.24 0.24 0.24
0.15 0.15 0.15 0.16 0.16 0.17 0.17 0.17 0.18 0.19 0.19 0.20 0.20 0.20 0.20 0.21 0.21 0.21 0.21 0.21 0.22 0.22 0.23 0.23 0.23 0.23 0.24 0.25 0.25 0.26 0.27 0.28 0.28 0.28 0.27 0.27 0.28 0.28 0.28 0.27 0.25 0.24
0.15 0.15 0.16 0.16 0.16 0.17 0.18 0.18 0.19 0.19 0.19 0.20 0.20 0.21 0.21 0.21 0.21 0.21 0.21 0.21 0.22 0.22 0.22 0.23 0.23 0.23 0.24 0.24 0.25 0.25 0.26 0.27 0.27 0.26 0.26 0.27 0.28 0.28 0.28 0.29 0.29 0.29
Wind_Speed
36 35 34 33 33 34 35 35 34 34 34 35 36 37 38 38 39 40 41 42 43 43 44 44 45 45 46 47 48 49 49 51 52 53 55 57 59 61 64 65 65 66
31 30 31 31 31 30 30 29 29 29 30 31 32 33 33 34 34 34 35 36 37 38 39 39 40 41 43 43 44 45 46 47 48 48 50 51 53 55 58 60 62 63
29 29 29 29 28 27 27 26 26 26 27 28 29 29 29 29 29 30 30 31 32 33 34 35 37 38 39 39 40 41 42 43 43 44 45 47 48 50 52 54 56 58
29 28 27 27 27 27 26 26 26 26 26 26 26 26 26 27 28 28 29 30 30 31 32 33 34 34 35 35 36 37 38 39 39 39 41 42 44 46 48 50 51 54
28 27 27 26 26 26 26 26 26 26 25 25 26 26 26 27 27 28 29 29 30 30 30 31 31 32 32 33 34 35 36 36 36 36 37 39 40 41 44 45 48 50
26 26 26 26 26 25 25 25 25 25 25 26 26 26 26 27 27 28 28 29 29 30 30 30 30 30 31 32 33 34 34 33 34 34 35 36 37 38 40 42 44 47
25 25 25 25 25 25 25 25 24 25 25 25 26 26 26 27 27 27 27 28 28 28 28 29 29 29 29 30 31 31 32 32 32 32 32 34 36 37 38 39 41 43
25 25 24 24 25 24 24 24 24 23 23 24 24 25 25 26 26 26 26 26 26 26 26 27 27 27 28 28 29 29 29 29 29 30 30 31 33 34 36 37 38 40
25 25 24 24 24 23 23 22 22 22 21 22 22 22 23 23 24 24 24 24 24 24 24 25 25 25 26 26 27 27 27 27 28 28 29 28 29 31 32 34 35 36
25 25 25 24 23 22 21 21 20 19 19 19 19 20 20 20 21 22 23 23 24 24 24 24 24 24 24 24 25 25 26 26 26 27 26 26 27 28 29 31 33 34
25 25 24 23 22 21 20 19 18 17 16 16 16 17 17 18 18 19 20 21 22 22 23 23 24 24 24 24 24 24 24 25 25 25 25 24 25 25 26 28 30 32
25 24 24 23 21 20 19 17 16 14 13 13 13 14 14 15 15 16 17 18 19 20 21 22 23 23 23 24 24 24 24 24 24 24 23 23 23 23 24 25 26 28
24 24 23 22 21 20 18 17 15 13 11 10 10 10 11 11 12 13 14 15 16 18 19 20 21 22 23 24 24 23 23 23 23 23 23 22 22 22 23 23 24 25
24 24 23 22 21 20 19 17 15 13 11 9 8 8 7 8 8 9 11 12 13 15 17 18 19 20 21 22 23 23 23 23 23 23 23 23 22 22 22 22 22 23
23 23 23 22 22 21 19 18 16 14 12 10 8 7 6 5 5 6 8 9 11 12 14 15 16 17 19 20 21 21 22 22 22 23 23 23 23 22 22 22 22 22
23 23 22 22 21 21 20 18 17 15 13 12 10 8 6 5 4 4 5 7 8 10 11 13 14 15 17 18 19 20 21 21 22 22 22 22 23 22 22 22 22 22
23 23 22 21 21 20 19 18 17 16 14 13 11 9 8 6 5 4 4 5 7 8 10 11 12 14 15 17 18 19 20 21 21 22 22 22 23 23 22 22 22 22
22 22 21 21 20 19 19 18 17 16 14 13 12 11 10 8 7 6 6 6 6 7 8 9 11 12 14 15 16 18 19 19 20 21 22 22 23 23 23 23 22 22
22 22 21 21 20 19 18 18 17 16 15 14 13 12 11 10 9 8 8 7 7 8 8 9 9 11 12 14 15 16 17 18 19 20 21 21 22 23 23 23 23 23
22 21 21 20 20 19 18 17 16 16 15 14 13 12 12 11 10 10 9 9 9 9 9 9 9 10 11 12 13 14 15 16 17 18 20 21 22 23 23 24 24 23
22 21 21 20 20 19 19 18 17 16 16 15 14 13 13 12 11 11 11 10 10 10 10 10 10 10 11 11 11 12 13 14 15 16 18 19 21 22 23 24 24 24
22 21 21 20 20 20 19 18 18 17 17 16 15 15 14 13 13 13 12 12 12 11 11 11 11 11 11 11 11 12 13 13 15 16 16 17 18 20 21 22 24 24
21 21 21 20 20 20 19 19 19 18 18 17 17 16 15 15 15 15 14 14 13 12 12 12 12 12 12 12 11 11 11 12 13 15 15 15 16 18 20 21 23 24
21 21 21 20 20 20 20 20 19 19 18 18 18 17 17 16 17 16 15 15 14 13 13 13 13 13 13 12 12 11 10 9 9 11 14 15 14 15 16 19 21 23
20 20 20 20 20 20 20 20 19 19 19 19 19 18 18 18 18 18 17 15 14 13 13 13 13 13 12 12 12 12 11 9 8 9 11 12 13 13 14 16 18 21
20 20 19 19 19 20 20 19 19 19 19 19 19 19 19 19 19 18 17 16 15 14 13 12 12 12 12 12 12 12 11 9 8 8 8 9 10 12 13 14 16 18
Wind_Direction
298 296 293 290 287 285 283 280 277 273 270 268 266 264 264 263 262 259 257 255 255 255 255 255 255 255 255 255 255 255 255 255 254 253 251 250 249 248 247 246 246 245
302 299 296 294 291 288 285 281 278 275 272 269 267 265 264 263 261 258 256 254 253 253 253 253 253 254 255 255 255 255 255 254 254 253 251 250 249 248 246 245 245 245
306 303 300 298 295 291 288 284 280 277 275 272 269 265 262 260 258 256 254 253 252 252 252 252 252 254 254 254 254 253 253 254 253 252 251 251 249 248 246 245 244 244
309 306 303 300 297 294 291 287 283 280 277 273 269 264 261 259 259 257 256 254 253 252 252 252 253 253 253 253 252 252 252 252 252 252 252 251 250 248 246 245 244 243
311 309 307 303 300 296 291 288 284 281 277 273 269 265 263 261 259 259 257 256 254 253 252 253 253 253 253 251 251 251 251 251 252 252 252 251 250 249 247 245 244 243
314 312 310 306 303 299 294 289 285 281 278 274 270 267 264 262 260 259 258 256 255 254 253 253 253 253 252 251 251 250 250 250 250 250 251 251 250 249 247 245 244 243
318 316 313 310 306 302 298 293 288 283 279 275 272 268 265 263 260 258 257 256 255 254 253 253 253 253 253 252 251 250 250 249 250 250 251 252 251 249 246 244 244 243
323 320 317 314 310 306 301 296 291 286 281 277 273 269 265 263 260 258 256 255 254 253 253 253 253 254 253 251 250 250 250 250 250 250 252 253 252 248 246 244 244 243
328 326 323 319 314 310 305 300 294 289 284 279 274 270 266 262 260 258 255 254 253 252 253 253 252 253 252 251 250 250 251 251 250 251 252 253 252 250 247 244 243 242
334 332 329 325 321 316 312 306 300 293 287 282 277 272 268 263 259 256 254 253 252 252 253 251 250 251 252 252 251 251 252 251 251 251 252 252 251 251 249 245 242 241
340 338 336 333 330 326 322 316 309 301 294 287 281 276 271 265 260 255 252 252 251 251 251 250 249 250 251 252 252 252 252 251 251 252 252 252 250 250 249 247 243 240
345 345 344 343 340 337 333 329 322 313 304 296 288 282 276 269 261 255 252 251 251 250 250 249 249 249 249 250 250 251 252 252 252 252 252 252 251 250 248 247 243 239
351 351 351 351 350 348 346 343 338 331 322 312 301 292 284 274 266 259 255 253 251 250 249 249 249 248 248 249 250 251 251 252 252 252 252 252 252 250 247 246 242 238
355 356 357 359 359 359 358 357 355 351 344 337 327 316 303 288 274 264 259 256 254 251 250 249 249 248 248 249 250 250 251 252 252 253 253 253 252 251 247 244 241 236
359 0 2 4 5 5 6 6 6 5 3 359 353 345 332 310 287 272 266 262 257 253 251 250 250 249 249 250 251 251 251 252 253 254 254 253 252 250 245 241 239 235
1 3 4 6 7 9 10 11 11 12 12 11 9 4 356 339 315 292 279 271 264 260 257 255 254 253 253 252 252 251 251 252 253 253 253 251 249 247 243 238 237 234
3 4 5 7 9 10 11 11 12 12 12 12 10 8 3 357 346 326 305 287 277 271 267 264 262 260 258 255 253 252 252 252 253 253 252 249 247 244 240 236 235 233
4 5 6 7 9 9 10 10 11 11 11 9 8 6 2 358 351 340 327 311 296 286 279 275 272 268 263 258 256 255 253 253 253 252 251 248 245 242 238 235 233 232
5 5 6 7 8 9 9 10 10 10 10 9 7 5 2 356 349 342 334 324 312 301 294 288 283 278 271 264 260 257 255 254 253 251 249 247 244 240 236 233 232 232
5 5 6 6 7 8 9 8 8 8 8 7 6 4 0 355 349 342 336 328 320 310 302 296 290 285 279 271 264 260 257 254 252 251 248 245 242 240 235 232 231 230
3 3 4 5 6 6 6 6 6 5 5 4 3 0 356 352 348 343 337 331 325 316 307 300 295 291 285 277 271 266 261 257 253 251 249 245 241 239 236 233 230 230
3 2 2 2 3 3 4 4 4 3 2 0 359 356 353 349 346 341 336 331 326 320 312 305 301 298 291 285 281 276 271 265 257 252 249 246 242 238 235 233 231 230
3 2 1 1 1 2 3 3 3 2 1 359 357 355 351 348 344 339 334 328 323 318 314 308 305 302 297 292 287 282 280 275 261 249 246 246 243 238 235 233 231 230
3 3 3 2 2 2 2 2 2 2 1 0 358 355 352 350 346 341 335 330 323 318 313 307 302 300 298 294 288 283 283 283 266 249 243 244 243 239 236 234 232 232
3 4 3 2 2 2 1 1 2 1 0 0 358 356 354 352 349 345 340 335 330 325 320 312 304 299 295 291 286 281 279 278 270 256 247 243 242 239 237 235 233 232
3 3 3 2 1 1 1 1 1 1 360 359 358 358 356 354 352 349 343 339 335 330 327 323 314 306 298 291 284 277 272 268 264 258 252 246 241 237 236 235 233 233